^^
Datos históricos de la estación: Murcia-Puente Tocinos
 
Diario Informe para Septiembre 25, 2018 Unidades:  Métrico    Inglés   Ambas
Diario Semanal Mensual Anual Configurable
  Actual: Máximo: Mínimo: Media:
Temperatura: 25.8 °C 29.1 °C 22.8 °C 25.5 °C
Punto de rocio: 20.6 °C 21.5 °C 18.9 °C 20.6 °C
Humedad: 73% 89% 57% 75%
Velocidad viento: 11.3km/h 20.1km/h 0.0km/h 6.1km/h
Racha viento: 24.1km/h 33.8km/h - -
VientoENE - - ENE
Presión: 1020.1 hPa 1021.5 hPa 1019.0 hPa -
Precipitación: 0.0 mm      
Historical Graphs
 
 
Tabla de datos para Septiembre 25, 2018
Hora Temperatura Punto de rocio Presión Viento Velocidad viento Racha viento Humedad Intensidad lluvia(por hora) Nubes
00:04 25.1 °C 20.3 °C 1019.6 hPa NE 4.7 km/h 7.4 km/h 75% 0.0 mm OVC
00:09 25.1 °C 20.3 °C 1019.6 hPa NE 5.0 km/h 7.4 km/h 75% 0.0 mm OVC
00:15 25.1 °C 20.3 °C 1019.6 hPa NE 4.8 km/h 3.2 km/h 75% 0.0 mm BKN
00:19 25.1 °C 20.6 °C 1019.6 hPa NE 2.9 km/h 3.9 km/h 76% 0.0 mm OVC
00:25 25.2 °C 20.8 °C 1019.6 hPa NE 3.2 km/h 6.4 km/h 77% 0.0 mm BKN
00:29 25.2 °C 20.9 °C 1019.6 hPa NE 2.9 km/h 6.4 km/h 77% 0.0 mm OVC
00:35 25.2 °C 20.9 °C 1019.4 hPa NE 3.2 km/h 8.0 km/h 77% 0.0 mm BKN
00:39 25.2 °C 20.9 °C 1019.4 hPa NE 2.3 km/h 5.6 km/h 77% 0.0 mm OVC
00:45 25.1 °C 20.8 °C 1019.4 hPa NE 1.6 km/h 8.0 km/h 77% 0.0 mm BKN
00:49 24.9 °C 20.6 °C 1019.4 hPa NNE 3.9 km/h 4.7 km/h 77% 0.0 mm
00:55 24.8 °C 20.5 °C 1019.4 hPa NNE 3.2 km/h 8.0 km/h 77% 0.0 mm SCT
01:00 24.8 °C 20.7 °C 1019.4 hPa NNE 3.2 km/h 8.0 km/h 78% 0.0 mm CLR
01:05 24.7 °C 20.6 °C 1019.4 hPa NNE 3.2 km/h 3.2 km/h 78% 0.0 mm SCT
01:10 24.7 °C 20.6 °C 1019.4 hPa NNE 2.9 km/h 3.7 km/h 78% 0.0 mm SCT
01:15 24.7 °C 20.6 °C 1019.4 hPa NNE 3.2 km/h 4.8 km/h 78% 0.0 mm SCT
01:20 24.6 °C 20.7 °C 1019.4 hPa Calm   8.0 km/h 79% 0.0 mm SCT
01:25 24.6 °C 20.7 °C 1019.4 hPa Calm   8.0 km/h 79% 0.0 mm SCT
01:29 24.4 °C 20.5 °C 1019.4 hPa NNE 2.9 km/h 4.7 km/h 79% 0.0 mm
01:35 24.4 °C 20.5 °C 1019.4 hPa NNE 2.9 km/h 5.6 km/h 79% 0.0 mm SCT
01:39 24.3 °C 20.4 °C 1019.4 hPa NNE 2.3 km/h   79% 0.0 mm
01:44 24.3 °C 20.6 °C 1019.4 hPa NNE 2.3 km/h 3.7 km/h 80% 0.0 mm
01:50 24.3 °C 20.6 °C 1019.4 hPa NE 2.3 km/h 7.4 km/h 80% 0.0 mm SCT
01:55 24.2 °C 20.8 °C 1019.4 hPa NNE 1.6 km/h 8.0 km/h 81% 0.0 mm SCT
02:00 24.2 °C 20.7 °C 1019.4 hPa NE 3.2 km/h 8.0 km/h 81% 0.0 mm CLR
02:04 24.3 °C 21.1 °C 1019.4 hPa NE 4.7 km/h 9.3 km/h 82% 0.0 mm
02:09 24.3 °C 20.8 °C 1019.4 hPa NE 5.0 km/h 3.7 km/h 81% 0.0 mm
02:14 24.3 °C 21.1 °C 1019.4 hPa NE 5.0 km/h 5.6 km/h 82% 0.0 mm
02:20 24.3 °C 21.1 °C 1019.4 hPa NE 2.9 km/h 5.6 km/h 82% 0.0 mm SCT
02:25 24.3 °C 21.1 °C 1019.4 hPa NE 3.2 km/h 4.8 km/h 82% 0.0 mm SCT
02:29 24.3 °C 21.1 °C 1019.4 hPa NE 2.3 km/h   82% 0.0 mm
02:34 24.3 °C 21.2 °C 1019.4 hPa NE 2.3 km/h   83% 0.0 mm
02:39 24.2 °C 21.1 °C 1019.4 hPa Calm   5.6 km/h 83% 0.0 mm
02:45 24.2 °C 21.1 °C 1019.4 hPa Calm   8.0 km/h 83% 0.0 mm SCT
02:49 24.2 °C 21.1 °C 1019.4 hPa NE 3.2 km/h 5.6 km/h 83% 0.0 mm
02:54 24.2 °C 21.1 °C 1019.4 hPa NNE 3.2 km/h 3.7 km/h 83% 0.0 mm
03:00 24.1 °C 21.2 °C 1019.4 hPa NE 1.6 km/h 8.0 km/h 84% 0.0 mm CLR
03:04 24.1 °C 21.2 °C 1019.6 hPa NNE 2.3 km/h 4.7 km/h 84% 0.0 mm
03:09 24.0 °C 21.1 °C 1019.6 hPa NE 2.9 km/h 3.7 km/h 84% 0.0 mm
03:15 24.0 °C 21.1 °C 1019.6 hPa NE 2.9 km/h   84% 0.0 mm SCT
03:19 24.0 °C 21.1 °C 1019.5 hPa Calm     84% 0.0 mm
03:24 24.0 °C 21.3 °C 1019.5 hPa Calm     85% 0.0 mm
03:30 23.9 °C 21.2 °C 1019.5 hPa Calm     85% 0.0 mm SCT
03:35 23.9 °C 21.2 °C 1019.3 hPa Calm     85% 0.0 mm SCT
03:40 23.9 °C 21.1 °C 1019.3 hPa Calm   7.4 km/h 84% 0.0 mm SCT
03:45 23.8 °C 21.1 °C 1019.3 hPa Calm   8.0 km/h 85% 0.0 mm SCT
03:49 23.8 °C 21.1 °C 1019.4 hPa NNE 3.2 km/h 5.6 km/h 85% 0.0 mm CLR
03:55 23.8 °C 21.1 °C 1019.4 hPa NE 3.2 km/h 8.0 km/h 85% 0.0 mm FEW
04:00 23.7 °C 21.0 °C 1019.4 hPa NE 3.2 km/h 9.7 km/h 85% 0.0 mm
04:05 23.6 °C 21.1 °C 1019.3 hPa NE 3.2 km/h 8.0 km/h 86% 0.0 mm FEW
04:10 23.6 °C 21.1 °C 1019.3 hPa NE 5.8 km/h 7.4 km/h 86% 0.0 mm FEW
04:15 23.5 °C 21.0 °C 1019.3 hPa NE 4.8 km/h 8.0 km/h 86% 0.0 mm FEW
04:19 23.4 °C 20.9 °C 1019.2 hPa NE 5.0 km/h 7.4 km/h 86% 0.0 mm CLR
04:25 23.4 °C 20.9 °C 1019.2 hPa NE 4.8 km/h 8.0 km/h 86% 0.0 mm FEW
04:30 23.3 °C 20.8 °C 1019.2 hPa ENE 4.7 km/h 5.6 km/h 86% 0.0 mm FEW
04:35 23.3 °C 20.8 °C 1019.1 hPa ENE 3.2 km/h 6.4 km/h 86% 0.0 mm FEW
04:39 23.3 °C 20.8 °C 1019.1 hPa ENE 3.2 km/h 7.4 km/h 86% 0.0 mm CLR
04:45 23.3 °C 21.0 °C 1019.1 hPa ENE 3.2 km/h 6.4 km/h 87% 0.0 mm FEW
04:50 23.3 °C 21.0 °C 1019.1 hPa ENE 3.2 km/h 8.0 km/h 87% 0.0 mm FEW
04:55 23.3 °C 21.0 °C 1019.1 hPa ENE 3.2 km/h 8.0 km/h 87% 0.0 mm FEW
04:59 23.2 °C 20.9 °C 1019.1 hPa ENE 3.9 km/h 7.4 km/h 87% 0.0 mm CLR
05:05 23.2 °C 20.9 °C 1019.1 hPa ENE 3.2 km/h 8.0 km/h 87% 0.0 mm FEW
05:09 23.2 °C 20.9 °C 1019.1 hPa ENE 3.2 km/h 5.6 km/h 87% 0.0 mm CLR
05:15 23.2 °C 20.9 °C 1019.1 hPa ENE 3.2 km/h 7.4 km/h 87% 0.0 mm FEW
05:20 23.1 °C 20.8 °C 1019.1 hPa ENE 3.2 km/h 8.0 km/h 87% 0.0 mm FEW
05:25 23.1 °C 20.8 °C 1019.1 hPa ENE 4.7 km/h   87% 0.0 mm FEW
05:29 23.1 °C 20.8 °C 1019.1 hPa ENE 2.3 km/h   87% 0.0 mm BKN
05:35 23.1 °C 20.8 °C 1019.0 hPa ENE 1.6 km/h   87% 0.0 mm FEW
05:40 23.1 °C 20.8 °C 1019.0 hPa Calm     87% 0.0 mm FEW
05:45 23.0 °C 20.9 °C 1019.0 hPa Calm   4.8 km/h 88% 0.0 mm FEW
05:50 23.0 °C 20.9 °C 1019.1 hPa NE 1.6 km/h 4.8 km/h 88% 0.0 mm FEW
05:55 22.9 °C 20.8 °C 1019.1 hPa NE 1.6 km/h   88% 0.0 mm FEW
06:00 22.9 °C 20.8 °C 1019.1 hPa Calm     88% 0.0 mm BKN
06:05 22.9 °C 20.8 °C 1019.1 hPa Calm     88% 0.0 mm FEW
06:09 22.9 °C 21.0 °C 1019.1 hPa Calm     89% 0.0 mm BKN
06:15 22.9 °C 21.0 °C 1019.1 hPa Calm     89% 0.0 mm FEW
06:19 22.9 °C 20.8 °C 1019.2 hPa Calm     88% 0.0 mm BKN
06:25 22.9 °C 20.8 °C 1019.2 hPa Calm   8.0 km/h 88% 0.0 mm FEW
06:30 22.9 °C 20.8 °C 1019.2 hPa NE 2.3 km/h   88% 0.0 mm FEW
06:35 22.8 °C 20.7 °C 1019.2 hPa NE 2.3 km/h   88% 0.0 mm FEW
06:40 22.8 °C 20.9 °C 1019.2 hPa Calm     89% 0.0 mm FEW
06:44 22.8 °C 20.9 °C 1019.2 hPa Calm     89% 0.0 mm BKN
06:50 22.8 °C 20.9 °C 1019.3 hPa Calm     89% 0.0 mm FEW
06:55 22.8 °C 20.9 °C 1019.3 hPa Calm     89% 0.0 mm FEW
07:00 22.8 °C 20.9 °C 1019.3 hPa Calm     89% 0.0 mm BKN
07:05 22.8 °C 20.9 °C 1019.4 hPa Calm     89% 0.0 mm FEW
07:10 22.8 °C 20.9 °C 1019.4 hPa Calm     89% 0.0 mm FEW
07:15 22.8 °C 20.9 °C 1019.4 hPa Calm     89% 0.0 mm FEW
07:20 22.8 °C 20.9 °C 1019.5 hPa Calm     89% 0.0 mm FEW
07:24 22.8 °C 20.9 °C 1019.5 hPa Calm     89% 0.0 mm FEW
07:30 22.8 °C 20.9 °C 1019.5 hPa Calm     89% 0.0 mm FEW
07:35 22.8 °C 20.9 °C 1019.5 hPa Calm     89% 0.0 mm FEW
07:40 22.8 °C 20.9 °C 1019.5 hPa Calm     89% 0.0 mm FEW
07:45 22.8 °C 20.9 °C 1019.5 hPa Calm     89% 0.0 mm FEW
07:50 22.8 °C 20.9 °C 1019.7 hPa Calm     89% 0.0 mm FEW
07:55 22.8 °C 20.9 °C 1019.7 hPa Calm     89% 0.0 mm FEW
08:00 22.8 °C 20.9 °C 1019.7 hPa Calm     89% 0.0 mm FEW
08:04 22.9 °C 21.0 °C 1019.9 hPa Calm     89% 0.0 mm FEW
08:10 22.9 °C 21.0 °C 1019.9 hPa Calm   8.0 km/h 89% 0.0 mm FEW
08:15 22.8 °C 20.5 °C 1019.9 hPa Calm     87% 0.0 mm FEW
08:20 22.8 °C 20.5 °C 1020.1 hPa Calm     87% 0.0 mm SCT
08:25 22.9 °C 20.6 °C 1020.1 hPa Calm   4.8 km/h 87% 0.0 mm SCT
08:30 22.9 °C 20.4 °C 1020.1 hPa Calm   6.4 km/h 86% 0.0 mm SCT
08:35 22.9 °C 20.4 °C 1020.2 hPa Calm   6.4 km/h 86% 0.0 mm SCT
08:40 23.0 °C 20.6 °C 1020.2 hPa ESE 3.2 km/h 8.0 km/h 86% 0.0 mm SCT
08:45 23.1 °C 20.6 °C 1020.2 hPa ESE 3.2 km/h 4.8 km/h 86% 0.0 mm SCT
08:50 23.2 °C 20.7 °C 1020.4 hPa SE 3.2 km/h 8.0 km/h 86% 0.0 mm SCT
08:55 23.3 °C 20.8 °C 1020.4 hPa ENE 2.9 km/h 3.9 km/h 86% 0.0 mm SCT
09:00 23.4 °C 20.9 °C 1020.4 hPa SSE 3.2 km/h 8.0 km/h 86% 0.0 mm FEW
09:05 23.4 °C 20.7 °C 1020.6 hPa SSE 3.2 km/h 8.0 km/h 85% 0.0 mm SCT
09:10 23.5 °C 20.8 °C 1020.6 hPa South 4.7 km/h 9.3 km/h 85% 0.0 mm SCT
09:15 23.5 °C 20.8 °C 1020.6 hPa SSE 4.7 km/h 7.4 km/h 85% 0.0 mm SCT
09:20 23.6 °C 20.9 °C 1020.6 hPa SSE 6.4 km/h 7.4 km/h 85% 0.0 mm FEW
09:25 23.6 °C 20.9 °C 1020.6 hPa SSE 8.0 km/h 8.0 km/h 85% 0.0 mm FEW
09:29 23.7 °C 21.0 °C 1020.6 hPa South 3.9 km/h 7.4 km/h 85% 0.0 mm FEW
09:35 23.7 °C 21.0 °C 1020.8 hPa SSE 3.2 km/h 9.7 km/h 85% 0.0 mm FEW
09:40 23.7 °C 21.0 °C 1020.8 hPa SSE 5.0 km/h 7.4 km/h 85% 0.0 mm FEW
09:44 23.8 °C 20.9 °C 1020.8 hPa SSE 5.0 km/h 7.4 km/h 84% 0.0 mm FEW
09:50 23.8 °C 20.9 °C 1020.9 hPa SSE 4.8 km/h 8.0 km/h 84% 0.0 mm FEW
09:55 23.8 °C 20.9 °C 1020.9 hPa South 4.8 km/h 9.7 km/h 84% 0.0 mm FEW
09:59 23.9 °C 21.1 °C 1020.9 hPa SSW 4.7 km/h 5.6 km/h 84% 0.0 mm FEW
10:05 24.1 °C 21.0 °C 1021.1 hPa SSW 3.2 km/h 8.0 km/h 83% 0.0 mm FEW
10:09 24.3 °C 21.2 °C 1021.1 hPa SSE 3.2 km/h   83% 0.0 mm FEW
10:15 24.4 °C 21.0 °C 1021.1 hPa SSE 3.2 km/h 6.4 km/h 81% 0.0 mm FEW
10:20 24.8 °C 21.3 °C 1021.2 hPa Calm   3.7 km/h 81% 0.0 mm FEW
10:25 25.2 °C 21.5 °C 1021.2 hPa Calm   3.7 km/h 80% 0.0 mm FEW
10:30 25.4 °C 21.3 °C 1021.2 hPa NNW 2.3 km/h 3.9 km/h 78% 0.0 mm FEW
10:35 25.6 °C 21.3 °C 1021.3 hPa NNW 1.6 km/h 6.4 km/h 77% 0.0 mm FEW
10:39 25.8 °C 21.4 °C 1021.3 hPa NNW 2.3 km/h 7.4 km/h 77% 0.0 mm
10:45 25.7 °C 21.2 °C 1021.3 hPa SSE 2.3 km/h 7.4 km/h 76% 0.0 mm FEW
10:50 25.8 °C 21.2 °C 1021.4 hPa East 3.2 km/h 8.0 km/h 76% 0.0 mm SCT
10:55 26.1 °C 21.5 °C 1021.4 hPa NNE 3.2 km/h 9.7 km/h 76% 0.0 mm SCT
11:00 25.9 °C 21.2 °C 1021.4 hPa NW 3.2 km/h 8.0 km/h 75% 0.0 mm CLR
11:05 26.1 °C 21.4 °C 1021.5 hPa NNW 3.2 km/h 8.0 km/h 76% 0.0 mm SCT
11:09 26.2 °C 21.0 °C 1021.5 hPa ESE 3.9 km/h 7.4 km/h 73% 0.0 mm
11:15 26.3 °C 21.3 °C 1021.5 hPa ENE 3.2 km/h 11.3 km/h 74% 0.0 mm SCT
11:19 26.4 °C 21.4 °C 1021.5 hPa North 4.7 km/h 6.9 km/h 74% 0.0 mm FEW
11:25 26.8 °C 21.3 °C 1021.5 hPa ENE 4.7 km/h 9.3 km/h 72% 0.0 mm SCT
11:29 26.7 °C 21.4 °C 1021.5 hPa NE 3.2 km/h 5.6 km/h 73% 0.0 mm FEW
11:35 26.7 °C 21.2 °C 1021.5 hPa NNE 3.2 km/h 11.3 km/h 72% 0.0 mm SCT
11:40 26.8 °C 21.3 °C 1021.5 hPa NE 8.0 km/h 14.5 km/h 72% 0.0 mm SCT
11:45 26.9 °C 21.3 °C 1021.5 hPa ENE 8.0 km/h 9.7 km/h 71% 0.0 mm SCT
11:50 26.8 °C 20.9 °C 1021.5 hPa ENE 4.8 km/h 19.3 km/h 70% 0.0 mm SCT
11:55 26.7 °C 21.0 °C 1021.5 hPa NE 4.8 km/h 14.5 km/h 71% 0.0 mm SCT
12:00 26.7 °C 21.0 °C 1021.5 hPa NE 9.7 km/h 14.5 km/h 71% 0.0 mm FEW
12:05 26.6 °C 20.9 °C 1021.5 hPa NE 9.7 km/h 16.1 km/h 71% 0.0 mm SCT
12:10 26.6 °C 21.1 °C 1021.5 hPa NE 8.7 km/h 16.7 km/h 72% 0.0 mm SCT
12:15 26.6 °C 20.9 °C 1021.5 hPa NNE 9.7 km/h 16.1 km/h 71% 0.0 mm SCT
12:19 26.7 °C 21.0 °C 1021.4 hPa NE 8.7 km/h 7.4 km/h 71% 0.0 mm FEW
12:25 26.9 °C 20.9 °C 1021.4 hPa NE 8.7 km/h 17.2 km/h 70% 0.0 mm FEW
12:30 26.9 °C 20.9 °C 1021.4 hPa NW 7.6 km/h 18.5 km/h 70% 0.0 mm -RA
12:35 27.2 °C 21.3 °C 1021.4 hPa East 7.6 km/h 14.8 km/h 70% 0.0 mm FEW
12:40 27.3 °C 21.1 °C 1021.4 hPa NE 9.5 km/h 11.1 km/h 69% 0.0 mm -RA
12:45 27.5 °C 21.1 °C 1021.4 hPa ENE 9.7 km/h 19.3 km/h 68% 0.0 mm FEW
12:50 27.6 °C 20.9 °C 1021.2 hPa ENE 8.0 km/h 20.9 km/h 67% 0.0 mm BKN
12:55 27.6 °C 20.7 °C 1021.2 hPa NE 8.0 km/h 20.9 km/h 66% 0.0 mm FEW
13:00 27.7 °C 20.3 °C 1021.2 hPa NE 9.7 km/h 24.1 km/h 64% 0.0 mm FEW
13:05 27.7 °C 20.3 °C 1021.2 hPa NE 9.7 km/h 19.3 km/h 64% 0.0 mm FEW
13:10 27.8 °C 20.1 °C 1021.2 hPa NE 11.3 km/h 16.1 km/h 63% 0.0 mm BKN
13:15 27.7 °C 20.0 °C 1021.2 hPa NE 11.3 km/h 16.1 km/h 63% 0.0 mm FEW
13:20 27.7 °C 20.0 °C 1021.1 hPa NE 9.7 km/h 19.3 km/h 63% 0.0 mm -RA
13:25 27.7 °C 20.3 °C 1021.1 hPa ENE 8.7 km/h 16.7 km/h 64% 0.0 mm
13:30 27.9 °C 20.2 °C 1021.1 hPa East 11.1 km/h 18.5 km/h 63% 0.0 mm -RA
13:35 27.8 °C 20.4 °C 1021.0 hPa ENE 11.1 km/h 18.5 km/h 64% 0.0 mm
13:40 27.7 °C 20.0 °C 1021.0 hPa ESE 11.1 km/h 16.7 km/h 63% 0.0 mm -RA
13:45 27.7 °C 20.0 °C 1021.0 hPa ENE 11.3 km/h 16.1 km/h 63% 0.0 mm CLR
13:49 27.7 °C 20.0 °C 1020.8 hPa NE 10.0 km/h 13.0 km/h 63% 0.0 mm
13:55 27.8 °C 19.8 °C 1020.8 hPa ENE 10.0 km/h 14.8 km/h 62% 0.0 mm CLR
14:00 27.8 °C 19.8 °C 1020.8 hPa ENE 9.7 km/h 16.1 km/h 62% 0.0 mm CLR
14:05 27.9 °C 19.9 °C 1020.6 hPa ENE 9.7 km/h 22.5 km/h 62% 0.0 mm CLR
14:09 27.8 °C 19.8 °C 1020.6 hPa ENE 9.5 km/h 20.4 km/h 62% 0.0 mm CLR
14:15 27.8 °C 19.8 °C 1020.6 hPa NE 9.7 km/h 22.5 km/h 62% 0.0 mm CLR
14:19 27.6 °C 19.7 °C 1020.5 hPa NE 14.0 km/h 20.4 km/h 62% 0.0 mm CLR
14:25 27.7 °C 19.7 °C 1020.5 hPa NE 14.5 km/h 22.5 km/h 62% 0.0 mm SCT
14:30 27.7 °C 19.8 °C 1020.5 hPa NE 12.9 km/h 24.1 km/h 62% 0.0 mm SCT
14:35 27.7 °C 20.1 °C 1020.5 hPa NE 12.9 km/h 19.3 km/h 63% 0.0 mm SCT
14:40 27.8 °C 20.1 °C 1020.5 hPa ENE 11.3 km/h 20.9 km/h 63% 0.0 mm SCT
14:45 27.8 °C 20.1 °C 1020.5 hPa ENE 11.1 km/h 9.3 km/h 63% 0.0 mm SCT
14:50 28.0 °C 20.1 °C 1020.3 hPa ENE 9.7 km/h 16.1 km/h 62% 0.0 mm SCT
14:54 28.1 °C 20.1 °C 1020.3 hPa SE 10.0 km/h 11.1 km/h 62% 0.0 mm
15:00 28.1 °C 19.9 °C 1020.3 hPa ESE 9.7 km/h 17.7 km/h 61% 0.0 mm CLR
15:05 28.2 °C 19.7 °C 1020.1 hPa ESE 9.7 km/h 17.7 km/h 60% 0.0 mm SCT
15:10 28.3 °C 19.8 °C 1020.1 hPa NE 10.0 km/h 13.0 km/h 60% 0.0 mm SCT
15:14 28.7 °C 19.9 °C 1020.1 hPa ESE 10.0 km/h 16.7 km/h 59% 0.0 mm
15:20 28.9 °C 19.8 °C 1019.9 hPa ESE 9.7 km/h 20.9 km/h 58% 0.0 mm SCT
15:25 29.1 °C 19.9 °C 1019.9 hPa East 9.7 km/h 20.9 km/h 58% 0.0 mm SCT
15:30 28.8 °C 19.7 °C 1019.9 hPa NNE 10.3 km/h 20.4 km/h 58% 0.0 mm SCT
15:35 28.4 °C 19.4 °C 1019.8 hPa NE 11.3 km/h 22.5 km/h 58% 0.0 mm SCT
15:40 28.2 °C 19.7 °C 1019.8 hPa NE 12.9 km/h 22.5 km/h 60% 0.0 mm SCT
15:45 28.1 °C 19.3 °C 1019.8 hPa NE 12.9 km/h 19.3 km/h 59% 0.0 mm SCT
15:50 28.1 °C 19.6 °C 1019.6 hPa ENE 11.9 km/h 16.7 km/h 60% 0.0 mm SCT
15:55 28.2 °C 19.7 °C 1019.6 hPa ENE 11.3 km/h 16.1 km/h 60% 0.0 mm SCT
16:00 28.3 °C 19.5 °C 1019.6 hPa ENE 9.7 km/h 19.3 km/h 59% 0.0 mm FEW
16:05 28.4 °C 19.4 °C 1019.5 hPa ENE 9.7 km/h 17.7 km/h 58% 0.0 mm SCT
16:10 28.4 °C 19.4 °C 1019.5 hPa ENE 9.7 km/h 25.7 km/h 58% 0.0 mm SCT
16:15 28.4 °C 19.1 °C 1019.5 hPa ENE 9.7 km/h 19.3 km/h 57% 0.0 mm SCT
16:19 28.4 °C 19.1 °C 1019.4 hPa ENE 12.2 km/h 18.0 km/h 57% 0.0 mm
16:25 28.6 °C 19.2 °C 1019.4 hPa NE 12.9 km/h 19.3 km/h 57% 0.0 mm SCT
16:29 28.8 °C 19.7 °C 1019.4 hPa NNE 10.3 km/h 24.1 km/h 58% 0.0 mm
16:35 28.9 °C 19.8 °C 1019.5 hPa NW 10.3 km/h 29.6 km/h 58% 0.0 mm SCT
16:40 28.8 °C 19.7 °C 1019.5 hPa NE 12.9 km/h 29.0 km/h 58% 0.0 mm SCT
16:45 28.8 °C 19.7 °C 1019.5 hPa NE 12.9 km/h 19.3 km/h 58% 0.0 mm SCT
16:50 28.7 °C 19.6 °C 1019.5 hPa ENE 11.9 km/h 25.6 km/h 58% 0.0 mm SCT
16:55 28.6 °C 19.5 °C 1019.5 hPa ENE 11.3 km/h 27.4 km/h 58% 0.0 mm SCT
16:59 28.7 °C 19.9 °C 1019.5 hPa WNW 13.0 km/h 18.5 km/h 59% 0.0 mm
17:05 28.7 °C 19.9 °C 1019.3 hPa ENE 12.9 km/h 20.9 km/h 59% 0.0 mm SCT
17:10 28.7 °C 19.6 °C 1019.3 hPa ESE 10.3 km/h 20.4 km/h 58% 0.0 mm SCT
17:15 28.7 °C 19.9 °C 1019.3 hPa ENE 11.3 km/h 22.5 km/h 59% 0.0 mm SCT
17:19 28.5 °C 19.4 °C 1019.3 hPa NE 13.0 km/h 20.4 km/h 58% 0.0 mm
17:25 28.3 °C 19.2 °C 1019.3 hPa ENE 12.9 km/h 27.4 km/h 58% 0.0 mm SCT
17:30 28.3 °C 19.5 °C 1019.3 hPa ENE 14.8 km/h 22.2 km/h 59% 0.0 mm SCT
17:35 28.3 °C 19.6 °C 1019.1 hPa East 14.5 km/h 22.5 km/h 59% 0.0 mm SCT
17:40 28.3 °C 19.6 °C 1019.1 hPa East 12.9 km/h 22.5 km/h 59% 0.0 mm SCT
17:45 28.4 °C 19.1 °C 1019.1 hPa ENE 12.9 km/h 22.5 km/h 57% 0.0 mm SCT
17:49 28.3 °C 18.9 °C 1019.3 hPa ENE 12.2 km/h 24.1 km/h 57% 0.0 mm
17:55 28.3 °C 19.2 °C 1019.3 hPa NE 12.2 km/h 22.2 km/h 58% 0.0 mm
18:00 28.3 °C 19.5 °C 1019.3 hPa NE 14.5 km/h 19.3 km/h 59% 0.0 mm CLR
18:05 28.4 °C 19.9 °C 1019.3 hPa NE 14.8 km/h 24.1 km/h 60% 0.0 mm
18:10 28.3 °C 20.0 °C 1019.3 hPa NE 11.3 km/h 32.2 km/h 61% 0.0 mm BKN
18:15 27.8 °C 19.9 °C 1019.3 hPa NE 11.3 km/h 30.6 km/h 62% 0.0 mm CLR
18:20 27.8 °C 19.8 °C 1019.5 hPa ENE 19.0 km/h 27.8 km/h 62% 0.0 mm BKN
18:25 27.6 °C 20.2 °C 1019.5 hPa ENE 19.0 km/h 27.8 km/h 64% 0.0 mm
18:30 27.5 °C 20.6 °C 1019.5 hPa NE 18.3 km/h 29.6 km/h 66% 0.0 mm BKN
18:35 27.3 °C 20.6 °C 1019.6 hPa NE 19.3 km/h 33.8 km/h 67% 0.0 mm CLR
18:40 27.1 °C 20.7 °C 1019.6 hPa ENE 20.1 km/h 22.2 km/h 68% 0.0 mm BKN
18:45 27.1 °C 20.7 °C 1019.6 hPa ENE 20.1 km/h 20.4 km/h 68% 0.0 mm
18:49 27.1 °C 20.7 °C 1019.7 hPa ENE 13.7 km/h 16.4 km/h 68% 0.0 mm
18:55 26.9 °C 20.7 °C 1019.7 hPa ENE 13.7 km/h 22.2 km/h 69% 0.0 mm SCT
19:00 26.7 °C 20.8 °C 1019.7 hPa ENE 11.3 km/h 24.1 km/h 70% 0.0 mm CLR
19:05 26.6 °C 20.7 °C 1019.8 hPa NE 11.3 km/h 25.7 km/h 70% 0.0 mm SCT
19:10 26.3 °C 20.6 °C 1019.8 hPa ENE 12.9 km/h 25.7 km/h 71% 0.0 mm SCT
19:15 26.2 °C 20.5 °C 1019.8 hPa ENE 13.0 km/h 24.1 km/h 71% 0.0 mm SCT
19:20 26.1 °C 20.7 °C 1019.8 hPa NE 14.0 km/h 20.4 km/h 72% 0.0 mm SCT
19:25 26.0 °C 20.6 °C 1019.8 hPa East 14.0 km/h 20.4 km/h 72% 0.0 mm SCT
19:29 25.9 °C 20.4 °C 1019.8 hPa NE 13.7 km/h 24.1 km/h 72% 0.0 mm FEW
19:35 25.8 °C 20.4 °C 1020.1 hPa ENE 13.7 km/h 14.8 km/h 72% 0.0 mm SCT
19:40 25.8 °C 20.4 °C 1020.1 hPa ENE 11.3 km/h 24.1 km/h 72% 0.0 mm SCT
19:45 25.8 °C 20.6 °C 1020.1 hPa ENE 11.3 km/h 24.1 km/h 73% 0.0 mm SCT
Murcia-Puente Tocinos, España
Compliments of Weather Underground - 2.5 mb

La estación de MeteoMurcia.com, publica sus datos en los siguientes proyectos:

Meteoclimatic www.awekas.at

W3Counter
Web Analytics